[[{"header":{"parameterUnit":"m.s-1","parameterCategory":2,"la1":30.2991,"la2":30.254,"lo1":-89.0895,"lo2":-89.0444,"dy":0.0017,"dx":0.0017,"nx":28,"ny":28,"refTime":"2023-06-21T21:00:00:Z","depth":"0","parameterNumber":2,"parameterNumberName":"U-component_of_CURRENTS"},"data":[0,0,0,0,0,0,0,0,0,0,0,0,0,0,0,0,0,0,0,0,0,0,0,0,0,0,0,0,0,0,0,0,0,0,0,0,0,0,0,0,0,0,0,0,0,0,0,0,0,0,0,0,0,0,0,0,0,0,0.479,0.4795,0,0.5209,0.5213,0.5217,0.5338,0.5336,0.5335,0.5334,0.5355,0.5357,0.5359,0,0,0,0,0,0,0,0,0,0,0,0,0,0.4398,0.4402,0.4789,0.4796,0.4802,0.5209,0.5213,0.5218,0.5338,0.5336,0.5335,0.5334,0.5355,0.5357,0.5359,0,0,0,0,0,0,0,0,0,0,0,0,0,0.4655,0.4403,0.4788,0.492,0.4937,0.5208,0.5213,0.5219,0.5338,0.5336,0.5335,0.5333,0.5354,0.5357,0.5359,0.5407,0,0,0.5366,0.5367,0,0,0,0,0,0,0,0,0.464,0.4667,0.4895,0.4912,0.4932,0.523,0.5085,0.5267,0.5338,0.5172,0.5334,0.5332,0.5286,0.5294,0.5364,0.5408,0.5409,0.5367,0.5368,0.5369,0.537,0,0,0,0,0,0,0,0.4621,0.4652,0.4943,0.4902,0.4925,0.5065,0.5095,0.5122,0.5216,0.5187,0.52,0.5267,0.5291,0.5362,0.5365,0.5409,0.5366,0.5369,0.537,0.5371,0.5551,0.5554,0,0,0,0,0,0,0.4582,0.4634,0.493,0.4957,0.4793,0.5073,0.5106,0.5126,0.5225,0.5246,0.5268,0.5272,0.5359,0.5362,0.5365,0.5482,0.5369,0.5371,0.5373,0.5547,0.5552,0.5555,0,0,0,0,0,0,0.457,0.4602,0.4913,0.4818,0.4869,0.508,0.5102,0.5135,0.523,0.5294,0.5303,0.5332,0.5358,0.5362,0.5442,0.548,0.5372,0.5375,0.5544,0.5549,0.5553,0.5677,0,0,0,0,0,0,0.4556,0.4594,0.4609,0.4813,0.4873,0.5115,0.5107,0.5145,0.5279,0.5287,0.5351,0.5352,0.5357,0.5439,0.5444,0.5481,0.5376,0.5539,0.5546,0.5552,0.5669,0.5686,0.57,0,0,0,0,0,0.454,0.4611,0.4605,0.4644,0.4879,0.5121,0.5165,0.5302,0.5283,0.5367,0.5402,0.535,0.548,0.5446,0.545,0.5488,0.5536,0.5544,0.5551,0.5662,0.5682,0.57,0,0,0,0,0,0,0.4482,0.4637,0.4635,0.4749,0.4923,0.5146,0.5265,0.5316,0.5419,0.5404,0.5411,0.5419,0.5499,0.5486,0.5446,0.556,0.5492,0.5501,0.5574,0.5594,0.5609,0.563,0.5378,0,0,0,0,0,0.446,0.4526,0.4708,0.4802,0.4891,0.5058,0.5172,0.5253,0.5377,0.5424,0.5455,0.5483,0.5537,0.5558,0.56,0.5669,0.5645,0.5692,0.5707,0.5721,0.5744,0.5781,0.5802,0.558,0.558,0.558,0,0,0.4459,0.4562,0.4595,0.4792,0.493,0.5093,0.5122,0.5314,0.5418,0.54,0.5522,0.5542,0.5571,0.5663,0.5693,0.5654,0.5765,0.573,0.5741,0.5758,0.5791,0.5812,0.5831,0.5585,0.5584,0.5583,0,0,0.4573,0.4587,0.4712,0.4841,0.5058,0.5151,0.5199,0.5402,0.5466,0.5596,0.5597,0.5664,0.5732,0.5785,0.5811,0.5938,0.5852,0.5918,0.6012,0.6048,0.6066,0.6081,0.6045,0.6056,0.592,0.5921,0.5921,0,0.4566,0.4726,0.48,0.4973,0.5075,0.5166,0.5326,0.5429,0.5614,0.5654,0.5642,0.578,0.5804,0.5921,0.5979,0.5974,0.5946,0.5934,0.6067,0.6082,0.6096,0.6055,0.6066,0.5928,0.5927,0.5926,0.5925,0,0.4803,0.4907,0.5012,0.5191,0.5302,0.5466,0.5586,0.5663,0.5697,0.5781,0.5896,0.5961,0.6031,0.6052,0.6065,0.6176,0.6105,0.6083,0.6013,0.6126,0.6075,0.6084,0.5937,0.5935,0.5933,0.5931,0,0,0.4837,0.5113,0.5142,0.5206,0.5411,0.5509,0.565,0.5805,0.5863,0.5984,0.6085,0.6208,0.6205,0.6239,0.6248,0.6301,0.6379,0.6242,0.6241,0.6195,0.6399,0.6175,0.6162,0.6368,0.6372,0.6374,0.631,0,0.5002,0.5286,0.5381,0.5564,0.5696,0.574,0.5844,0.5946,0.6025,0.613,0.6199,0.6301,0.6285,0.6318,0.6377,0.6389,0.6415,0.6395,0.6307,0.6304,0.6084,0.6171,0.5862,0.5764,0.6318,0.632,0.6321,0,0.5232,0.5354,0.5581,0.5681,0.5736,0.5815,0.5895,0.6012,0.6156,0.6228,0.6335,0.6382,0.6503,0.6465,0.653,0.6507,0.6471,0.6466,0.6462,0.6221,0.6099,0.5751,0.5759,0.5651,0.6334,0.6333,0.6332,0,0.5238,0.5476,0.5614,0.567,0.5822,0.5848,0.5896,0.6023,0.6072,0.6286,0.6323,0.6488,0.6517,0.6569,0.6544,0.6546,0.6571,0.6557,0.6313,0.6293,0.5998,0.5946,0.5884,0.6597,0.6597,0.6597,0.6597,0,0.5393,0.5488,0.5596,0.5664,0.5697,0.5808,0.586,0.596,0.6083,0.6139,0.6335,0.6387,0.6543,0.6558,0.657,0.6441,0.6571,0.6342,0.6281,0.6026,0.598,0.5844,0.5828,0.6594,0.6595,0.6595,0.6596,0,0.5421,0.5557,0.5642,0.5723,0.5724,0.572,0.5753,0.5809,0.5944,0.6023,0.6082,0.6281,0.6331,0.6404,0.6473,0.6388,0.6164,0.6273,0.5927,0.5826,0.548,0.5481,0.5178,0.5035,0.6007,0.6001,0.5996,0,0.5495,0.5569,0.5585,0.5579,0.5604,0.5603,0.5624,0.5736,0.5795,0.5925,0.5962,0.6045,0.6093,0.6086,0.602,0.5962,0.5898,0.5612,0.5583,0.5424,0.5384,0.5262,0.516,0.523,0.522,0.5211,0.5204,0,0.5546,0.5533,0.5562,0.5499,0.549,0.5461,0.549,0.5486,0.5629,0.5671,0.5709,0.5743,0.5728,0.5555,0.5482,0.543,0.5334,0.5424,0.5376,0.4868,0.4617,0.4459,0.5285,0.5126,0.5134,0.514,0.5144,0.5147,0.5524,0.5481,0.5474,0.5381,0.5371,0.5297,0.5196,0.5259,0.5245,0.5205,0.5388,0.5287,0.5192,0.505,0.4954,0.4611,0.4739,0.4473,0.4512,0.4423,0.4203,0.482,0.4527,0.4531,0.4534,0.4537,0.454,0,0.5451,0.5415,0.5352,0.5233,0.5117,0.5138,0.5086,0.494,0.4834,0.4876,0.4834,0.4607,0.4395,0.4287,0.3978,0.377,0.3647,0.3682,0.3499,0.347,0.4103,0.3991,0.3425,0.3425,0.3425,0.3425,0.3426,0.3426,0.543,0.5326,0.523,0.4978,0.4885,0.4638,0.4535,0.4372,0.4316,0.4059,0.388,0.3861,0.3866,0.3652,0.335,0.3251,0.3088,0.2842,0.2981,0.3506,0.3586,0.3662,0.3555,0.2908,0.2907,0.2157,0.2152,0.2148]},{"header":{"parameterUnit":"m.s-1","parameterCategory":2,"la1":30.2991,"la2":30.254,"lo1":-89.0895,"lo2":-89.0444,"dy":0.0017,"dx":0.0017,"nx":28,"ny":28,"refTime":"2023-06-21T21:00:00:Z","depth":"0","parameterNumber":3,"parameterNumberName":"V-component_of_CURRENTS"},"data":[0,0,0,0,0,0,0,0,0,0,0,0,0,0,0,0,0,0,0,0,0,0,0,0,0,0,0,0,0,0,0,0,0,0,0,0,0,0,0,0,0,0,0,0,0,0,0,0,0,0,0,0,0,0,0,0,0,0,-0.0293,-0.0295,0,-0.0408,-0.041,-0.0411,-0.0492,-0.0493,-0.0494,-0.0495,-0.0529,-0.0529,-0.0529,0,0,0,0,0,0,0,0,0,0,0,0,0,-0.0165,-0.0166,-0.0293,-0.0295,-0.0297,-0.0408,-0.041,-0.0411,-0.0492,-0.0493,-0.0494,-0.0495,-0.0529,-0.0529,-0.0529,0,0,0,0,0,0,0,0,0,0,0,0,0,-0.0241,-0.0167,-0.0293,-0.0353,-0.036,-0.0408,-0.041,-0.0411,-0.0492,-0.0493,-0.0494,-0.0496,-0.0529,-0.0529,-0.0529,-0.0501,0,0,-0.0529,-0.0529,0,0,0,0,0,0,0,0,-0.0236,-0.0245,-0.0342,-0.0349,-0.0356,-0.044,-0.0377,-0.0438,-0.0491,-0.0438,-0.0495,-0.0496,-0.0493,-0.0496,-0.0511,-0.0503,-0.0504,-0.0529,-0.0529,-0.0529,-0.0529,0,0,0,0,0,0,0,-0.0231,-0.0241,-0.0336,-0.0344,-0.0353,-0.0382,-0.0393,-0.0389,-0.0452,-0.0443,-0.045,-0.0467,-0.0496,-0.0511,-0.0512,-0.0505,-0.0529,-0.0529,-0.0529,-0.0529,-0.038,-0.0376,0,0,0,0,0,0,-0.0221,-0.0236,-0.0332,-0.0339,-0.0302,-0.0383,-0.0396,-0.0409,-0.0454,-0.0464,-0.0466,-0.0471,-0.051,-0.0512,-0.0514,-0.0408,-0.0529,-0.0529,-0.0529,-0.0384,-0.0379,-0.0374,0,0,0,0,0,0,-0.0217,-0.0228,-0.0327,-0.0293,-0.0308,-0.0384,-0.0398,-0.0411,-0.0422,-0.0473,-0.0481,-0.0464,-0.0511,-0.0513,-0.0479,-0.0413,-0.0529,-0.0529,-0.0388,-0.0382,-0.0377,-0.0246,0,0,0,0,0,0,-0.0213,-0.0226,-0.0224,-0.0292,-0.031,-0.0341,-0.0397,-0.0412,-0.0433,-0.044,-0.0474,-0.048,-0.0512,-0.0479,-0.0479,-0.0415,-0.0529,-0.0393,-0.0386,-0.0378,-0.0255,-0.0236,-0.0219,0,0,0,0,0,-0.0208,-0.0215,-0.0223,-0.0235,-0.0307,-0.034,-0.035,-0.0408,-0.0431,-0.0424,-0.0433,-0.0478,-0.0431,-0.0476,-0.0478,-0.0412,-0.0397,-0.0388,-0.0379,-0.0263,-0.024,-0.022,0,0,0,0,0,0,-0.0165,-0.0226,-0.0236,-0.0261,-0.0285,-0.0355,-0.0368,-0.0392,-0.0397,-0.0401,-0.0439,-0.0443,-0.0386,-0.0408,-0.0456,-0.0341,-0.0416,-0.0407,-0.0327,-0.0305,-0.0288,-0.0241,-0.0529,0,0,0,0,0,-0.0149,-0.0166,-0.0215,-0.0229,-0.0242,-0.0293,-0.0312,-0.0342,-0.0365,-0.0371,-0.0386,-0.0381,-0.0349,-0.0337,-0.0328,-0.027,-0.0275,-0.0221,-0.0203,-0.0189,-0.0147,-0.0065,-0.0036,-0.0345,-0.0345,-0.0345,0,0,-0.0138,-0.0172,-0.0182,-0.0219,-0.025,-0.0238,-0.0307,-0.0331,-0.0294,-0.0368,-0.0319,-0.0327,-0.0319,-0.0255,-0.0229,-0.0266,-0.0114,-0.0177,-0.0165,-0.013,-0.0052,-0.0022,0.0004,-0.0339,-0.034,-0.0341,0,0,-0.013,-0.0148,-0.016,-0.0163,-0.0198,-0.0206,-0.0201,-0.0243,-0.0236,-0.0196,-0.0217,-0.0171,-0.0158,-0.0117,-0.0098,0.0033,-0.0026,0.0027,0.0156,0.0235,0.0261,0.0284,0.026,0.028,0.0039,0.004,0.004,0,-0.0111,-0.0118,-0.0163,-0.0161,-0.0134,-0.0177,-0.0139,-0.0135,-0.0149,-0.0097,-0.0161,-0.0058,-0.0076,0.0062,0.0099,0.0076,0.0072,0.0064,0.0258,0.0281,0.0302,0.0272,0.0293,0.0047,0.0046,0.0046,0.0045,0,-0.0111,-0.0091,-0.0093,-0.0078,-0.0052,-0.0031,-0.0014,0.0031,0.004,0.0054,0.0167,0.0152,0.0226,0.0226,0.0194,0.0358,0.0285,0.0263,0.0198,0.0341,0.0299,0.0318,0.0058,0.0055,0.0053,0.0051,0,0,-0.0123,-0.0094,-0.009,-0.0014,0.0009,0.0053,0.0138,0.0235,0.0341,0.0327,0.0471,0.0506,0.0495,0.0522,0.0498,0.0557,0.0661,0.0479,0.0479,0.0444,0.0769,0.0667,0.0675,0.0671,0.0677,0.0681,0.0657,0,-0.0093,-0.0028,-0.0025,0.0112,0.018,0.0227,0.0335,0.0424,0.0484,0.0607,0.0626,0.0725,0.061,0.066,0.0705,0.0696,0.0728,0.0666,0.0647,0.0646,0.0531,0.0702,0.0659,0.0634,0.0675,0.0678,0.068,0,-0.0088,-0.0018,0.01,0.0292,0.0326,0.041,0.0642,0.0728,0.0871,0.0915,0.1001,0.0994,0.1092,0.0966,0.101,0.0973,0.0893,0.0849,0.0847,0.0733,0.0584,0.0513,0.0666,0.0497,0.0708,0.0706,0.0704,0,-0.0021,0.0093,0.0224,0.0274,0.0447,0.0559,0.0673,0.0831,0.0969,0.1124,0.1223,0.1289,0.1351,0.1303,0.1172,0.1114,0.119,0.1095,0.0915,0.09,0.0857,0.0831,0.0849,0.1143,0.1143,0.1143,0.1143,0,0.0039,0.0159,0.0275,0.0362,0.0597,0.0667,0.0916,0.1034,0.1211,0.1403,0.139,0.1535,0.1449,0.1452,0.1293,0.1169,0.1281,0.0985,0.0935,0.0891,0.0871,0.0711,0.0614,0.1142,0.1142,0.1142,0.1142,0,0.0124,0.016,0.0365,0.056,0.0634,0.0823,0.1078,0.1256,0.1375,0.1628,0.1688,0.1772,0.1763,0.1618,0.1544,0.1335,0.1107,0.113,0.1027,0.0967,0.0602,0.0514,0.0472,0.0414,0.0935,0.0933,0.0931,0,0.0188,0.0278,0.0524,0.0671,0.0776,0.1018,0.1188,0.1347,0.1522,0.1772,0.1909,0.1968,0.2028,0.1836,0.1518,0.1237,0.1075,0.0972,0.087,0.0631,0.0497,0.0417,0.0367,0.0825,0.0823,0.0821,0.0819,0,0.0375,0.0439,0.0619,0.0866,0.107,0.1293,0.1524,0.167,0.1857,0.2039,0.2248,0.2312,0.2118,0.1841,0.1436,0.1221,0.0842,0.0918,0.0761,0.0513,0.035,0.0251,0.0705,0.0802,0.0804,0.0805,0.0806,0.0807,0.056,0.0703,0.0882,0.1123,0.133,0.1524,0.1687,0.1898,0.2139,0.2383,0.2445,0.2552,0.2124,0.1575,0.1274,0.0664,0.0695,0.045,0.0382,0.0338,0.0254,0.0617,0.0603,0.0603,0.0604,0.0604,0.0605,0,0.0797,0.0902,0.1126,0.1374,0.1555,0.1621,0.1881,0.2005,0.224,0.2496,0.2643,0.2477,0.1955,0.1427,0.0593,0.0192,0.0084,0.0006,-0.0083,-0.0091,0.0316,0.0282,0.0093,0.0093,0.0093,0.0094,0.0094,0.0094,0.0947,0.1154,0.12,0.1484,0.1634,0.1821,0.1935,0.2126,0.2316,0.2547,0.2623,0.265,0.2218,0.0849,-0.0051,-0.0235,-0.0433,-0.0524,-0.0583,-0.031,-0.0273,-0.0238,-0.029,-0.0596,-0.0596,-0.0959,-0.0963,-0.0966]}],[{"header":{"parameterUnit":"m.s-1","parameterCategory":2,"la1":30.2991,"la2":30.254,"lo1":-89.0895,"lo2":-89.0444,"dy":0.0017,"dx":0.0017,"nx":28,"ny":28,"refTime":"2023-06-21T21:00:00:Z","depth":"2","parameterNumber":2,"parameterNumberName":"U-component_of_CURRENTS"},"data":[0,0,0,0,0,0,0,0,0,0,0,0,0,0,0,0,0,0,0,0,0,0,0,0,0,0,0,0,0,0,0,0,0,0,0,0,0,0,0,0,0,0,0,0,0,0,0,0,0,0,0,0,0,0,0,0,0,0,0.3312,0.3313,0,0.3474,0.3476,0.3478,0.3514,0.3513,0.3512,0.351,0.3775,0.3782,0.3791,0,0,0,0,0,0,0,0,0,0,0,0,0,0.3088,0.3091,0.3312,0.3314,0.3315,0.3474,0.3476,0.3478,0.3514,0.3513,0.3511,0.351,0.3772,0.3781,0.3791,0,0,0,0,0,0,0,0,0,0,0,0,0,0.3212,0.3093,0.3311,0.3352,0.3357,0.3473,0.3476,0.3479,0.3515,0.3513,0.3511,0.3509,0.3769,0.3781,0.3793,0.3906,0,0,0.383,0.3836,0,0,0,0,0,0,0,0,0.3205,0.322,0.3344,0.3349,0.3355,0.3471,0.3494,0.3627,0.3515,0.3456,0.351,0.3508,0.3683,0.3702,0.3737,0.3919,0.393,0.3831,0.3839,0.3844,0.3848,0,0,0,0,0,0,0,0.3196,0.3214,0.3377,0.3346,0.3353,0.3381,0.3396,0.3519,0.3581,0.3461,0.3464,0.3481,0.3687,0.3725,0.3744,0.3934,0.3831,0.3842,0.3849,0.3854,0.425,0.4253,0,0,0,0,0,0,0.3174,0.3206,0.3372,0.3382,0.3273,0.3386,0.3403,0.3437,0.3577,0.3596,0.3482,0.3482,0.3705,0.3729,0.3753,0.3947,0.3844,0.3855,0.3863,0.4247,0.4251,0.4254,0,0,0,0,0,0,0.3169,0.3188,0.3365,0.3295,0.3319,0.3391,0.3429,0.3441,0.35,0.3592,0.3612,0.3531,0.3704,0.3736,0.3904,0.3955,0.3861,0.3872,0.4243,0.4248,0.4253,0.4302,0,0,0,0,0,0,0.3162,0.3186,0.3217,0.3294,0.3323,0.3452,0.3431,0.3445,0.3512,0.3514,0.3642,0.3662,0.3705,0.3885,0.3916,0.397,0.3882,0.4239,0.4245,0.4251,0.4296,0.4307,0.4317,0,0,0,0,0,0.3154,0.3194,0.3218,0.3238,0.3359,0.3454,0.3473,0.3516,0.3516,0.356,0.3657,0.3659,0.3942,0.39,0.3935,0.3993,0.4236,0.4244,0.4251,0.4291,0.4305,0.4317,0,0,0,0,0,0,0.3111,0.3204,0.3231,0.3297,0.338,0.346,0.3511,0.354,0.365,0.3665,0.3734,0.3765,0.3922,0.3963,0.3914,0.4121,0.4078,0.4092,0.4096,0.4111,0.4121,0.4093,0.3892,0,0,0,0,0,0.3119,0.3164,0.3267,0.3316,0.3372,0.3451,0.3499,0.3537,0.3633,0.3677,0.3763,0.3864,0.3979,0.4047,0.415,0.4293,0.4295,0.4342,0.4352,0.4361,0.4362,0.4471,0.4491,0.4277,0.4277,0.4277,0,0,0.312,0.3166,0.32,0.3309,0.3382,0.348,0.3477,0.357,0.3653,0.3698,0.3849,0.3923,0.4028,0.4172,0.4243,0.4215,0.4408,0.437,0.4376,0.4373,0.4481,0.4502,0.452,0.4282,0.4281,0.4281,0,0,0.3138,0.3196,0.3259,0.3344,0.3457,0.3509,0.3543,0.3661,0.3724,0.3877,0.3922,0.4028,0.4208,0.4277,0.4339,0.4479,0.4467,0.4506,0.4542,0.4649,0.4667,0.4683,0.4637,0.4649,0.4504,0.4505,0.4505,0,0.3146,0.324,0.3291,0.3388,0.3475,0.3528,0.3647,0.3721,0.3868,0.3927,0.3932,0.4168,0.4252,0.4413,0.4452,0.4502,0.4515,0.4482,0.4661,0.4678,0.4693,0.4643,0.4655,0.4508,0.4507,0.4507,0.4507,0,0.3228,0.3325,0.3377,0.3512,0.36,0.3712,0.3827,0.3891,0.3956,0.4028,0.4197,0.4308,0.4445,0.4472,0.4517,0.4667,0.4619,0.4664,0.4619,0.4717,0.4657,0.4669,0.4512,0.4511,0.451,0.451,0,0,0.3218,0.3406,0.3435,0.3511,0.3696,0.3756,0.3892,0.4027,0.4101,0.4213,0.4363,0.4499,0.4542,0.4614,0.4674,0.4736,0.4833,0.475,0.4754,0.4683,0.4974,0.4752,0.4742,0.4932,0.4936,0.494,0.4858,0,0.3295,0.3489,0.3561,0.3723,0.3851,0.3924,0.4035,0.414,0.4249,0.4396,0.4488,0.4651,0.4612,0.4699,0.4772,0.4848,0.4882,0.4844,0.4908,0.4906,0.4684,0.4757,0.4426,0.4313,0.4869,0.4871,0.4873,0,0.3367,0.3498,0.3714,0.3844,0.3903,0.3981,0.4133,0.4237,0.4419,0.4528,0.467,0.477,0.4898,0.4888,0.4977,0.4964,0.4983,0.4984,0.4984,0.4772,0.471,0.4325,0.4314,0.4892,0.489,0.4889,0.4888,0,0.3358,0.3564,0.373,0.3809,0.3996,0.405,0.4111,0.4274,0.4366,0.4629,0.4721,0.4905,0.4995,0.5075,0.5056,0.5065,0.5123,0.5149,0.4925,0.4903,0.4627,0.4575,0.5235,0.5235,0.5235,0.5235,0.5235,0,0.3433,0.3546,0.3725,0.3829,0.3941,0.4061,0.4183,0.427,0.4471,0.4571,0.4788,0.4876,0.506,0.5104,0.5115,0.5004,0.5168,0.4919,0.4899,0.4623,0.4574,0.5104,0.509,0.5232,0.5233,0.5233,0.5234,0,0.346,0.3585,0.3748,0.3936,0.3954,0.4046,0.4163,0.4248,0.442,0.4577,0.4661,0.4869,0.4894,0.4969,0.507,0.5,0.4979,0.4909,0.4484,0.4415,0.4659,0.4649,0.4653,0.4646,0.4639,0.4633,0.4629,0,0.3521,0.3618,0.3796,0.3848,0.3941,0.4051,0.4105,0.4244,0.4324,0.4496,0.4554,0.466,0.4679,0.4681,0.4643,0.4583,0.4771,0.4226,0.42,0.4634,0.4615,0.4616,0.4615,0.3815,0.3804,0.3795,0.3788,0,0.363,0.3682,0.3809,0.389,0.3949,0.3999,0.4062,0.4083,0.4215,0.4283,0.4299,0.4318,0.4339,0.4135,0.409,0.4029,0.4218,0.4035,0.4674,0.4011,0.3838,0.3821,0.385,0.3708,0.3716,0.3722,0.3726,0.3729,0.3682,0.3746,0.3834,0.3866,0.3923,0.387,0.3807,0.3833,0.3805,0.3767,0.3933,0.3829,0.3861,0.3598,0.3455,0.3382,0.3674,0.355,0.3582,0.3622,0.3538,0.3364,0.312,0.3124,0.3128,0.3131,0.3134,0,0.3748,0.3757,0.3766,0.3752,0.3702,0.3765,0.3703,0.3553,0.3369,0.3423,0.3368,0.3062,0.2909,0.2962,0.2712,0.2668,0.2696,0.2573,0.2613,0.2693,0.2764,0.2641,0.1982,0.1978,0.1975,0.1972,0,0,0.3757,0.3743,0.3642,0.3467,0.3458,0.3253,0.3153,0.297,0.2904,0.2668,0.2605,0.28,0.2891,0.2422,0.2331,0.212,0.2401,0.2033,0.2963,0.3095,0.3161,0.3333,0.3233,0,0,0,0,0]},{"header":{"parameterUnit":"m.s-1","parameterCategory":2,"la1":30.2991,"la2":30.254,"lo1":-89.0895,"lo2":-89.0444,"dy":0.0017,"dx":0.0017,"nx":28,"ny":28,"refTime":"2023-06-21T21:00:00:Z","depth":"2","parameterNumber":3,"parameterNumberName":"V-component_of_CURRENTS"},"data":[0,0,0,0,0,0,0,0,0,0,0,0,0,0,0,0,0,0,0,0,0,0,0,0,0,0,0,0,0,0,0,0,0,0,0,0,0,0,0,0,0,0,0,0,0,0,0,0,0,0,0,0,0,0,0,0,0,0,-0.0108,-0.0107,0,-0.0014,-0.0013,-0.0011,-0.0024,-0.0026,-0.0028,-0.003,-0.0097,-0.0097,-0.0097,0,0,0,0,0,0,0,0,0,0,0,0,0,-0.0133,-0.0133,-0.0108,-0.0107,-0.0106,-0.0015,-0.0013,-0.0011,-0.0023,-0.0026,-0.0028,-0.0031,-0.0097,-0.0097,-0.0097,0,0,0,0,0,0,0,0,0,0,0,0,0,-0.0084,-0.0133,-0.0108,-0.0106,-0.0105,-0.0015,-0.0013,-0.0011,-0.0023,-0.0026,-0.0029,-0.0032,-0.0097,-0.0097,-0.0097,-0.0034,0,0,-0.0096,-0.0096,0,0,0,0,0,0,0,0,-0.0087,-0.0082,-0.0107,-0.0106,-0.0105,-0.0039,-0.0046,-0.0028,-0.0022,-0.0048,-0.003,-0.0033,-0.0094,-0.0094,-0.0059,-0.0037,-0.004,-0.0096,-0.0096,-0.0096,-0.0096,0,0,0,0,0,0,0,-0.009,-0.0086,-0.0065,-0.0106,-0.0105,-0.0053,-0.0051,-0.0041,-0.0054,-0.0046,-0.0048,-0.0046,-0.0094,-0.0059,-0.0062,-0.0041,-0.0096,-0.0096,-0.0096,-0.0096,-0.0003,-0.0001,0,0,0,0,0,0,-0.0118,-0.0089,-0.0068,-0.0063,-0.0109,-0.0052,-0.0048,-0.0052,-0.005,-0.0053,-0.0043,-0.0047,-0.0058,-0.0062,-0.0064,0.0017,-0.0096,-0.0096,-0.0096,-0.0005,-0.0002,0.0,0,0,0,0,0,0,-0.0119,-0.0117,-0.0072,-0.0078,-0.007,-0.005,-0.0053,-0.0049,-0.003,-0.0047,-0.0053,-0.0032,-0.0061,-0.0065,-0.0028,0.0013,-0.0096,-0.0095,-0.0008,-0.0004,-0.0001,0.0174,0,0,0,0,0,0,-0.012,-0.0118,-0.0117,-0.008,-0.0071,-0.0006,-0.005,-0.0045,-0.0026,-0.0029,-0.0039,-0.0047,-0.0063,-0.0028,-0.0028,0.0011,-0.0095,-0.0011,-0.0006,-0.0002,0.0165,0.0183,0.0199,0,0,0,0,0,-0.0121,-0.0115,-0.0117,-0.0114,-0.0074,-0.0004,0.0009,0.0016,-0.0022,0.0016,0.0014,-0.0047,-0.0002,-0.0024,-0.0025,0.0015,-0.0013,-0.0008,-0.0003,0.0158,0.018,0.0198,0,0,0,0,0,0,-0.0119,-0.0115,-0.0117,-0.0109,-0.0054,-0.0008,0.0013,0.0019,0.0054,0.003,0.0005,0.0002,0.0047,0.0008,-0.0016,0.0051,-0.0027,-0.0021,0.0096,0.0116,0.0132,0.0169,-0.0095,0,0,0,0,0,-0.0119,-0.0111,-0.0083,-0.0062,-0.0053,-0.0018,0.0008,0.002,0.0047,0.0058,0.0068,0.006,0.0076,0.0075,0.0089,0.0135,0.0071,0.015,0.0167,0.0181,0.021,0.0162,0.0177,0.0018,0.0018,0.0017,0,0,-0.011,-0.0104,-0.0099,-0.0059,-0.0033,0.0056,-0.0009,0.0033,0.0123,0.0044,0.0155,0.0127,0.0104,0.0169,0.018,0.0135,0.019,0.0188,0.0201,0.0222,0.0169,0.0184,0.0198,0.0021,0.002,0.002,0,0,-0.0065,-0.0089,-0.0059,-0.0008,0.0035,0.009,0.01,0.0158,0.0181,0.0277,0.0242,0.0257,0.0284,0.0302,0.03,0.0413,0.0287,0.038,0.0492,0.0445,0.0458,0.0468,0.0394,0.0397,0.038,0.038,0.038,0,-0.0052,0.0001,-0.0028,0.0037,0.0104,0.0111,0.0211,0.0264,0.0344,0.0371,0.0323,0.0386,0.0363,0.044,0.0481,0.0456,0.0381,0.0421,0.0467,0.0476,0.0484,0.0405,0.0406,0.0389,0.0388,0.0387,0.0386,0,0.0036,0.0094,0.0117,0.022,0.0291,0.0373,0.0441,0.0513,0.053,0.057,0.0628,0.0611,0.0635,0.0624,0.0592,0.0643,0.0555,0.05,0.0419,0.0511,0.0421,0.0419,0.0402,0.0399,0.0396,0.0394,0,0,0.0035,0.0158,0.017,0.0269,0.0393,0.0475,0.0609,0.0737,0.0801,0.0843,0.0926,0.0951,0.0887,0.0883,0.0826,0.0791,0.0781,0.0671,0.0664,0.0602,0.0639,0.0591,0.0582,0.0709,0.071,0.0711,0.0549,0,0.0133,0.0294,0.0336,0.0558,0.0665,0.0727,0.0856,0.0954,0.0998,0.1083,0.1039,0.1084,0.0999,0.0982,0.0951,0.0829,0.0783,0.0828,0.0556,0.0549,0.0499,0.0582,0.0594,0.0452,0.0546,0.0545,0.0545,0,0.0236,0.033,0.0523,0.0735,0.0776,0.091,0.1092,0.1206,0.1286,0.1287,0.1306,0.1259,0.1263,0.1148,0.0999,0.1015,0.0856,0.074,0.0729,0.0629,0.0498,0.0377,0.0442,0.0539,0.0539,0.054,0.054,0,0.0313,0.0496,0.0663,0.0735,0.0938,0.1028,0.115,0.1255,0.1341,0.1409,0.1437,0.1412,0.1389,0.1224,0.1011,0.0983,0.0807,0.073,0.0539,0.0531,0.0466,0.0452,0.0619,0.0619,0.0619,0.062,0.062,0,0.0466,0.0598,0.0696,0.0808,0.1,0.1086,0.1267,0.1367,0.1455,0.156,0.153,0.1567,0.1397,0.1282,0.1064,0.0808,0.0838,0.0587,0.0506,0.0525,0.0519,0.0534,0.0527,0.0614,0.0615,0.0616,0.0617,0,0.0569,0.0646,0.0836,0.0997,0.1063,0.1193,0.1389,0.1483,0.1537,0.1674,0.1698,0.1683,0.1521,0.1328,0.1056,0.0871,0.063,0.0519,0.0549,0.0477,0.0361,0.0365,0.0296,0.0293,0.0291,0.0289,0.0287,0,0.0656,0.075,0.0942,0.1057,0.1145,0.131,0.1423,0.1539,0.1628,0.1731,0.1798,0.171,0.1653,0.1267,0.0945,0.0589,0.0564,0.0358,0.0336,0.0411,0.0338,0.0345,0.0351,0.0295,0.0294,0.0293,0.0292,0,0.0816,0.0849,0.1003,0.1161,0.1316,0.1481,0.1641,0.1724,0.1827,0.1897,0.1939,0.1896,0.1577,0.1245,0.081,0.0567,0.0429,0.0321,0.0399,0.0391,0.0402,0.0333,0.034,0.0282,0.0283,0.0284,0.0284,0.0285,0.0923,0.1009,0.1149,0.1304,0.1467,0.1609,0.1725,0.1836,0.1961,0.2037,0.2009,0.1925,0.1613,0.1035,0.0659,0.0296,0.032,0.0177,0.0184,0.0191,0.0236,0.0244,0.0101,0.0101,0.0101,0.0101,0.0101,0,0.1046,0.1122,0.1276,0.1464,0.158,0.1653,0.1831,0.1887,0.1982,0.2058,0.2048,0.1712,0.1374,0.1017,0.0465,0.0129,0.0116,0.0021,0.0089,0.0101,0.0111,0.0155,-0.0004,-0.0005,-0.0006,-0.0008,0,0,0.1143,0.1275,0.1296,0.1489,0.1596,0.172,0.1799,0.1905,0.1975,0.1971,0.1932,0.1879,0.1481,0.1058,0.062,0.0308,0.0273,0.0236,0.0356,0.0499,0.0512,0.0236,0.0321,0,0,0,0,0]}],[{"header":{"parameterUnit":"m.s-1","parameterCategory":2,"la1":30.2991,"la2":30.254,"lo1":-89.0895,"lo2":-89.0444,"dy":0.0017,"dx":0.0017,"nx":28,"ny":28,"refTime":"2023-06-21T21:00:00:Z","depth":"4","parameterNumber":2,"parameterNumberName":"U-component_of_CURRENTS"},"data":[0,0,0,0,0,0,0,0,0,0,0,0,0,0,0,0,0,0,0,0,0,0,0,0,0,0,0,0,0,0,0,0,0,0,0,0,0,0,0,0,0,0,0,0,0,0,0,0,0,0,0,0,0,0,0,0,0,0,0.1104,0.1102,0,0.0822,0.0818,0.0813,0.0835,0.084,0.0846,0.0851,0.0963,0.0961,0.0958,0,0,0,0,0,0,0,0,0,0,0,0,0,0.1395,0.139,0.1104,0.1102,0.11,0.0823,0.0817,0.0812,0.0834,0.0841,0.0848,0.0854,0.0964,0.0961,0.0958,0,0,0,0,0,0,0,0,0,0,0,0,0,0.1192,0.1388,0.1105,0.1089,0.1086,0.0824,0.0817,0.0811,0.0832,0.0841,0.0849,0.0857,0.0965,0.0961,0.0958,0.0765,0,0,0.0947,0.0945,0,0,0,0,0,0,0,0,0.1204,0.1179,0.1094,0.109,0.1086,0.0886,0.0961,0.082,0.083,0.0912,0.0852,0.0862,0.0978,0.0973,0.0873,0.077,0.0775,0.0947,0.0944,0.0943,0.0942,0,0,0,0,0,0,0,0.1218,0.119,0.0976,0.1091,0.1087,0.1006,0.0988,0.093,0.0895,0.0905,0.091,0.0901,0.0978,0.0876,0.0878,0.0777,0.0947,0.0944,0.0941,0.094,0.0997,0.1,0,0,0,0,0,0,0.1288,0.1203,0.0986,0.097,0.1185,0.0997,0.0975,0.0929,0.0887,0.0891,0.0894,0.0904,0.0878,0.0881,0.0883,0.1055,0.0943,0.094,0.0938,0.0993,0.0997,0.1001,0,0,0,0,0,0,0.1294,0.1269,0.0997,0.1096,0.1059,0.0986,0.0932,0.0919,0.0908,0.0878,0.0888,0.0912,0.0885,0.0888,0.1002,0.1047,0.0938,0.0935,0.0989,0.0994,0.0999,0.1146,0,0,0,0,0,0,0.1303,0.1271,0.1281,0.1099,0.1056,0.0967,0.0925,0.0908,0.0892,0.0903,0.0893,0.0906,0.0891,0.1008,0.0999,0.104,0.0932,0.0984,0.0991,0.0998,0.1136,0.1155,0.1172,0,0,0,0,0,0.1313,0.1276,0.1282,0.1259,0.1064,0.0971,0.0942,0.0906,0.0886,0.0915,0.0952,0.0911,0.1044,0.1008,0.0996,0.1038,0.0981,0.0989,0.0997,0.1128,0.1152,0.1171,0,0,0,0,0,0,0.1399,0.127,0.1274,0.1202,0.1167,0.0986,0.0955,0.0928,0.0939,0.0974,0.0947,0.0964,0.1066,0.1038,0.0999,0.1081,0.1005,0.1011,0.1109,0.113,0.1147,0.1175,0.0929,0,0,0,0,0,0.1423,0.1371,0.1276,0.1235,0.1198,0.1082,0.1039,0.1037,0.1005,0.1012,0.1029,0.1046,0.105,0.1099,0.1096,0.1131,0.1154,0.1157,0.1174,0.1189,0.1209,0.1351,0.1384,0.1028,0.1028,0.1028,0,0,0.1439,0.1369,0.134,0.1255,0.1169,0.1143,0.1074,0.1039,0.1064,0.1024,0.1091,0.11,0.1074,0.1143,0.1184,0.1156,0.1297,0.12,0.1213,0.1224,0.1363,0.1398,0.1429,0.1034,0.1033,0.1032,0,0,0.1406,0.138,0.1316,0.1299,0.125,0.1213,0.1236,0.1148,0.1165,0.1228,0.1205,0.1278,0.1286,0.1289,0.1276,0.138,0.1374,0.1387,0.1511,0.165,0.1681,0.1708,0.1757,0.1787,0.1414,0.1414,0.1414,0,0.1453,0.1368,0.1301,0.1255,0.1278,0.1264,0.127,0.1238,0.1248,0.129,0.1322,0.1385,0.1339,0.1411,0.1445,0.1414,0.1494,0.1426,0.1675,0.1703,0.1729,0.1772,0.1804,0.1422,0.1421,0.142,0.142,0,0.1339,0.1351,0.1307,0.128,0.1306,0.1316,0.132,0.1388,0.1439,0.1439,0.1579,0.1576,0.164,0.1614,0.1543,0.1691,0.1685,0.1668,0.1621,0.1774,0.1808,0.1839,0.1434,0.1431,0.1428,0.1426,0,0,0.1262,0.1243,0.1244,0.1314,0.1354,0.1369,0.1446,0.1519,0.1594,0.1686,0.1786,0.1801,0.1853,0.1844,0.1813,0.1905,0.2078,0.1882,0.1885,0.1929,0.2382,0.2102,0.2107,0.2161,0.2167,0.2173,0.2324,0,0.1229,0.1206,0.1219,0.1331,0.1358,0.1459,0.1545,0.1642,0.1727,0.1828,0.1875,0.1936,0.1924,0.1965,0.2087,0.206,0.2175,0.2036,0.2228,0.2231,0.1965,0.2138,0.2195,0.2346,0.2353,0.2358,0.2362,0,0.1106,0.1156,0.1219,0.1436,0.1454,0.1566,0.1789,0.1871,0.1986,0.2032,0.2181,0.2173,0.2283,0.2238,0.2457,0.2404,0.2421,0.2417,0.2425,0.2135,0.201,0.217,0.2417,0.2413,0.2408,0.2405,0.2401,0,0.1077,0.118,0.1278,0.1329,0.1524,0.1659,0.182,0.1972,0.2056,0.2173,0.2246,0.2405,0.2484,0.2616,0.2584,0.2571,0.2788,0.2755,0.2541,0.2518,0.2657,0.2626,0.2942,0.2942,0.2941,0.2941,0.294,0,0.1018,0.1098,0.1304,0.1367,0.1599,0.1735,0.1964,0.2097,0.2252,0.2342,0.2401,0.2488,0.2602,0.2688,0.2689,0.2705,0.2911,0.2591,0.2568,0.2706,0.268,0.2676,0.2643,0.2946,0.2945,0.2944,0.2943,0,0.0901,0.0991,0.1171,0.1464,0.1582,0.1767,0.2072,0.2177,0.2354,0.2479,0.2502,0.2611,0.271,0.2763,0.2873,0.28,0.2807,0.2748,0.2851,0.2824,0.2424,0.2397,0.2577,0.2569,0.2562,0.2557,0.2552,0,0.0808,0.0895,0.1253,0.1402,0.1555,0.1829,0.1979,0.2206,0.2297,0.2525,0.2558,0.2669,0.27,0.2704,0.2749,0.2748,0.2694,0.2671,0.2589,0.2442,0.2403,0.2387,0.2369,0.2541,0.2539,0.2538,0.2536,0,0.077,0.0918,0.1112,0.1389,0.1611,0.1765,0.2024,0.2074,0.2279,0.2455,0.2521,0.2495,0.2579,0.2584,0.256,0.2558,0.2673,0.2601,0.2615,0.2538,0.2401,0.2364,0.2356,0.2512,0.2516,0.2518,0.2519,0,0.0824,0.0953,0.1217,0.144,0.1625,0.1662,0.1805,0.1941,0.2061,0.2317,0.233,0.2446,0.2581,0.2486,0.2483,0.2423,0.2391,0.2294,0.2324,0.2351,0.2185,0.1971,0.1971,0,0,0,0,0,0.0905,0.1025,0.1237,0.1453,0.1544,0.162,0.1795,0.1895,0.2101,0.2099,0.2217,0.2253,0.2223,0.2283,0.2172,0.2326,0.2363,0.2177,0.226,0.2382,0.2409,0.2221,0,0,0,0,0,0,0.0989,0.1174,0.1243,0.1322,0.1405,0.1474,0.1547,0.1676,0.1708,0.1934,0.1954,0.2106,0.2131,0.2284,0.2138,0.2143,0.2136,0.2264,0.2256,0.2367,0.2391,0.2413,0.2229,0,0,0,0,0]},{"header":{"parameterUnit":"m.s-1","parameterCategory":2,"la1":30.2991,"la2":30.254,"lo1":-89.0895,"lo2":-89.0444,"dy":0.0017,"dx":0.0017,"nx":28,"ny":28,"refTime":"2023-06-21T21:00:00:Z","depth":"4","parameterNumber":3,"parameterNumberName":"V-component_of_CURRENTS"},"data":[0,0,0,0,0,0,0,0,0,0,0,0,0,0,0,0,0,0,0,0,0,0,0,0,0,0,0,0,0,0,0,0,0,0,0,0,0,0,0,0,0,0,0,0,0,0,0,0,0,0,0,0,0,0,0,0,0,0,0.0221,0.0222,0,0.0334,0.0335,0.0336,0.0386,0.0386,0.0386,0.0386,0.0497,0.05,0.0503,0,0,0,0,0,0,0,0,0,0,0,0,0,0.0059,0.0061,0.0221,0.0222,0.0224,0.0334,0.0335,0.0336,0.0386,0.0386,0.0386,0.0386,0.0496,0.05,0.0503,0,0,0,0,0,0,0,0,0,0,0,0,0,0.0144,0.0062,0.022,0.0264,0.0269,0.0334,0.0335,0.0337,0.0386,0.0386,0.0386,0.0386,0.0495,0.0499,0.0504,0.0529,0,0,0.0517,0.0519,0,0,0,0,0,0,0,0,0.0139,0.015,0.0256,0.0261,0.0267,0.0348,0.0319,0.0402,0.0386,0.0339,0.0386,0.0386,0.0449,0.0457,0.0475,0.0534,0.0539,0.0517,0.052,0.0522,0.0523,0,0,0,0,0,0,0,0.0133,0.0145,0.0263,0.0257,0.0264,0.0282,0.0293,0.0335,0.039,0.0343,0.0348,0.0364,0.0451,0.047,0.0478,0.054,0.0517,0.0521,0.0524,0.0525,0.0544,0.0542,0,0,0,0,0,0,0.0124,0.014,0.0259,0.0267,0.0205,0.0285,0.0298,0.032,0.039,0.0401,0.0364,0.0366,0.0463,0.0472,0.0482,0.051,0.0522,0.0526,0.0528,0.0546,0.0544,0.0541,0,0,0,0,0,0,0.012,0.0134,0.0255,0.0207,0.0224,0.0288,0.0312,0.0322,0.0363,0.0406,0.0417,0.0396,0.0463,0.0476,0.0535,0.0515,0.0528,0.0532,0.0549,0.0545,0.0543,0.057,0,0,0,0,0,0,0.0115,0.0132,0.0143,0.0207,0.0227,0.032,0.0312,0.0324,0.0373,0.0377,0.0437,0.0446,0.0464,0.0528,0.0539,0.0521,0.0535,0.0551,0.0547,0.0544,0.0572,0.0569,0.0566,0,0,0,0,0,0.0109,0.0147,0.0143,0.0158,0.0241,0.0322,0.0335,0.0377,0.0374,0.0409,0.0436,0.0446,0.0507,0.0533,0.0545,0.0528,0.0553,0.0548,0.0544,0.0574,0.0569,0.0566,0,0,0,0,0,0,0.0092,0.0158,0.0155,0.0211,0.0265,0.0332,0.0374,0.0389,0.0438,0.0443,0.0466,0.0478,0.0501,0.051,0.0537,0.0508,0.0513,0.051,0.053,0.0527,0.0524,0.0516,0.0539,0,0,0,0,0,0.0088,0.0131,0.0189,0.0234,0.0266,0.0314,0.035,0.0379,0.043,0.0453,0.0484,0.0492,0.0486,0.051,0.0515,0.0546,0.0515,0.052,0.0517,0.0514,0.0509,0.045,0.0442,0.0526,0.0526,0.0526,0,0,0.0091,0.0135,0.0157,0.0232,0.0278,0.034,0.0338,0.0412,0.0434,0.0457,0.0503,0.0498,0.0487,0.0498,0.0505,0.0516,0.047,0.0508,0.0507,0.0503,0.0444,0.0437,0.043,0.0523,0.0523,0.0524,0,0,0.0152,0.0165,0.0231,0.0272,0.0348,0.0376,0.04,0.0469,0.047,0.0519,0.0497,0.048,0.0529,0.0486,0.0473,0.0452,0.0448,0.045,0.0452,0.0395,0.0389,0.0383,0.033,0.0319,0.0458,0.0458,0.0458,0,0.0151,0.0241,0.0263,0.0335,0.0374,0.0395,0.0468,0.0469,0.0537,0.0523,0.0538,0.052,0.0502,0.0467,0.044,0.0445,0.043,0.0482,0.0395,0.0388,0.0381,0.0328,0.0316,0.0459,0.0458,0.0458,0.0458,0,0.0263,0.0326,0.0375,0.0457,0.0492,0.0568,0.057,0.0582,0.0579,0.0568,0.0544,0.0521,0.0509,0.047,0.0457,0.0387,0.0397,0.0396,0.0418,0.0375,0.0321,0.0308,0.046,0.0459,0.0459,0.0459,0,0,0.0292,0.0429,0.0445,0.0493,0.0563,0.0608,0.0614,0.0626,0.0613,0.0615,0.0585,0.0528,0.0509,0.0486,0.0451,0.0385,0.0297,0.0381,0.0378,0.0351,0.0193,0.0202,0.0188,0.0311,0.0309,0.0308,0.0174,0,0.0381,0.0537,0.0568,0.0678,0.0755,0.0736,0.0737,0.0718,0.0689,0.0651,0.056,0.0526,0.0516,0.0501,0.044,0.0333,0.0265,0.0334,0.0217,0.0213,0.0245,0.0174,0.0301,0.0164,0.0161,0.0158,0.0157,0,0.0489,0.0575,0.072,0.0785,0.0811,0.086,0.0848,0.0854,0.0761,0.072,0.0672,0.06,0.0496,0.0477,0.0328,0.0392,0.0291,0.0202,0.0196,0.0187,0.0197,0.021,0.0132,0.0134,0.0136,0.0138,0.0139,0,0.0532,0.0669,0.0787,0.0818,0.0896,0.0919,0.0944,0.089,0.0868,0.0763,0.0736,0.0623,0.0575,0.0444,0.0284,0.0307,0.0101,0.0107,0.0017,0.0017,0.0043,0.0051,-0.0034,-0.0034,-0.0033,-0.0033,-0.0033,0,0.0617,0.0693,0.0823,0.0891,0.0964,0.099,0.1023,0.1003,0.0954,0.0925,0.0805,0.0756,0.0567,0.0432,0.0282,0.0126,0.0113,-0.0006,-0.0025,0.0055,0.0065,0.0033,0.0043,-0.0038,-0.0037,-0.0036,-0.0035,0,0.0626,0.0735,0.0862,0.098,0.1011,0.106,0.1099,0.1095,0.107,0.1028,0.0991,0.0846,0.0686,0.0488,0.0238,0.0144,-0.0048,-0.0112,-0.002,-0.0028,-0.0096,-0.0084,-0.0225,-0.0226,-0.0227,-0.0228,-0.0228,0,0.0645,0.0743,0.0919,0.098,0.1042,0.1108,0.1138,0.1148,0.1142,0.1086,0.1062,0.0901,0.0779,0.0465,0.0251,-0.004,-0.0077,-0.018,-0.0148,-0.0116,-0.012,-0.0107,-0.0094,-0.0229,-0.023,-0.023,-0.023,0,0.0668,0.0758,0.0856,0.099,0.1075,0.1122,0.1185,0.1194,0.119,0.1176,0.1093,0.0908,0.0728,0.0473,0.0245,0.0036,-0.0118,-0.0189,-0.0189,-0.016,-0.0123,-0.0123,-0.011,-0.0233,-0.0233,-0.0232,-0.0232,0,0.0682,0.0731,0.0884,0.0969,0.1066,0.1116,0.1154,0.1166,0.1174,0.1151,0.112,0.0924,0.0814,0.051,0.0297,0.0096,0.0051,-0.0019,-0.0028,-0.0027,0.0073,0.0152,0.009,0,0,0,0,0,0.0703,0.0744,0.0831,0.0949,0.1027,0.108,0.1156,0.1182,0.1214,0.117,0.1152,0.0976,0.0676,0.0541,0.0344,0.0263,-0.0003,0.0022,-0.0092,-0.0249,-0.0245,-0.0161,0,0,0,0,0,0,0.071,0.0804,0.082,0.0887,0.095,0.1028,0.109,0.1122,0.1101,0.1118,0.0968,0.0918,0.0628,0.079,0.0336,0.0276,0.0174,-0.0107,-0.0112,-0.0251,-0.0248,-0.0245,-0.0157,0,0,0,0,0]}]]